Change the Weather History Date:

Sunday, March 3, 2013

  Actual Average Record
Temperature  
Mean Temperature 58 °F 50 °F  
Max Temperature 84 °F 65 °F 86 °F (1967)
Min Temperature 31 °F 34 °F 9 °F (2002)
Degree Days  
Heating Degree Days 7 16  
Month to date heating degree days 44 48  
Since 1 July heating degree days 2498 2755  
Cooling Degree Days 0 0  
Month to date cooling degree days 0 0  
Year to date cooling degree days 0 0  
Growing Degree Days 7 (Base 50)    
Moisture  
Dew Point 9 °F    
Average Humidity 23    
Maximum Humidity 43    
Minimum Humidity 3    
Precipitation  
Precipitation 0.00 in 0.02 in 0.29 in (1917)
Month to date precipitation 0.00 0.05  
Year to date precipitation 0.44 0.85  
Sea Level Pressure  
Sea Level Pressure 29.82 in    
Wind  
Wind Speed 9 mph (WSW)    
Max Wind Speed 29 mph    
Max Gust Speed 36 mph    
Visibility 10 miles    
Events      
T = Trace of Precipitation, MM = Missing Value Source: NWS Daily Summary

Daily Weather History Graph

Daily Weather History Graph

Search for Another Location

Airport or City:

Trip Planner

Search our weather history database for the weather conditions in past years. The results will help you decide how hot, cold, wet, or windy it might be!

Date:

Astronomy

Mar. 03, 2013 Rise Set
Actual Time 6:23 AM MST 5:56 PM MST
Civil Twilight 5:58 AM MST 6:21 PM MST
Nautical Twilight 5:29 AM MST 6:50 PM MST
Astronomical Twilight 5:01 AM MST 7:19 PM MST
Moon No Moon Rise 10:00 AM MST (3/3)
Length of Visible Light 12h 23m
Length of Day
11h 33m
Waning Gibbous, 63% of the Moon is Illuminated
Mar 3
Waning Gibbous
Mar 4
Last Quarter
Mar 11
New
Mar 19
First Quarter
Mar 27
Full

Hourly Weather History & Observations

Time (MST) Temp. Windchill Dew Point Humidity Pressure Visibility Wind Dir Wind Speed Gust Speed Precip Events Conditions
12:51 AM 39.0 °F - 10.9 °F 32% 30.08 in 10.0 mi Calm Calm - N/A   Clear
1:51 AM 30.9 °F 24.3 °F 7.0 °F 37% 30.07 in 10.0 mi WSW 6.9 mph - N/A   Clear
2:51 AM 35.1 °F 31.0 °F 10.0 °F 35% 30.03 in 10.0 mi West 4.6 mph - N/A   Clear
3:51 AM 36.0 °F 33.3 °F 12.0 °F 37% 30.00 in 10.0 mi NW 3.5 mph - N/A   Clear
5:51 AM 35.1 °F 31.0 °F 12.9 °F 40% 29.99 in 10.0 mi North 4.6 mph - N/A   Clear
6:51 AM 32.0 °F - 12.9 °F 45% 30.01 in 10.0 mi Calm Calm - N/A   Clear
8:51 AM 46.9 °F - 15.1 °F 28% 29.97 in 10.0 mi Calm Calm - N/A   Clear
9:51 AM 60.1 °F - 16.0 °F 18% 29.93 in 10.0 mi SSE 5.8 mph - N/A   Clear
10:51 AM 70.0 °F - 17.1 °F 13% 29.86 in 10.0 mi SE 6.9 mph - N/A   Clear
11:51 AM 78.1 °F - 6.1 °F 6% 29.80 in 10.0 mi SW 12.7 mph - N/A   Clear
12:51 PM 79.0 °F - 6.1 °F 6% 29.75 in 10.0 mi South 11.5 mph - N/A   Clear
1:51 PM 82.9 °F - -4.0 °F 4% 29.71 in 10.0 mi West 19.6 mph 29.9 mph N/A   Clear
3:51 PM 80.1 °F - -0.0 °F 4% 29.68 in 10.0 mi West 18.4 mph 28.8 mph N/A   Clear
4:51 PM 78.1 °F - 1.0 °F 5% 29.68 in 10.0 mi West 23.0 mph 28.8 mph N/A   Clear
5:51 PM 73.0 °F - 3.9 °F 7% 29.68 in 10.0 mi WSW 8.1 mph - N/A   Clear
6:51 PM 59.0 °F - 3.0 °F 11% 29.73 in 10.0 mi SSW 5.8 mph - N/A   Clear
7:51 PM 64.0 °F - 1.9 °F 8% 29.70 in 10.0 mi SSW 11.5 mph - N/A   Clear
8:51 PM 61.0 °F - 1.9 °F 9% 29.72 in 10.0 mi WSW 12.7 mph - N/A   Clear
9:51 PM 66.0 °F - 12.9 °F 13% 29.69 in 10.0 mi West 13.8 mph - N/A   Clear
10:51 PM 68.0 °F - 19.9 °F 16% 29.67 in 10.0 mi WNW 17.3 mph 21.9 mph N/A   Clear
11:51 PM 63.0 °F - 19.0 °F 18% 29.64 in 10.0 mi WSW 9.2 mph - N/A   Clear